Showing default

FLOCK 4BE 10, 60503

Orbit data source: Space-Track

FLOCK 4BE 10, 60503 is a payload satellite owned by Planet (US) in SSO that was launched on Fri, 16 Aug 2024 UTC via an FALCON 9 launch vehicle from the Air Force Western Test Range (AFWTR). Payload-class satellites include a variety of spacecraft equipped with specific instruments for various scientific and technological missions. These include communications satellites like Starlink; space stations such as the ISS; scientific satellites like the Hubble; Earth observation satellites from companies like Planet Labs, Umbra, and HawkEye 360; GPS; miniature CubeSats for education and research; and military/defense satellites.

Loading next visibility...
Identifier
60503, 2024-149AM
Orbit
SSO
Last TLE update
16 hours ago
Origin
Manufacturer
Planet
Mission
Operational Commercial Imaging
Bus & Motor
CUBESAT 3U, Unknown motor
Mass
5.7 kg wet, 5.7 kg dry
Launch date (UTC)
2024-08-16 (11 months ago)
Launch vehicle
FALCON 9
Launch site
Air Force Western Test Range (AFWTR)
Object type
Payload
Rocket body
Debris
Shape & HBR
Box + 2 Pan, 0.3 m
Radar Cross Section
0.035 m², Medium (>0.1 m² and < 1m²)

Expand to show TLE details & history

TLE from 16 hours ago
0 FLOCK 4BE 10
1 60503U 24149AM  25187.19028598  .00008127  00000-0  29860-3 0  9995
2 60503  97.4105 265.3919 0005018  80.2878 279.8928 15.28164466 49230
Epoch: 2025-07-06T04:34Z
TLE epoch observation values (Epoch: 2025-07-06T04:34:00.708Z)
Latitude
-0.00005°
Longitude
-87.52858°
Altitude
483.811 km
Speed
7.624 km/s
True Right ascension
17h 41m 34s
True Declination
0° 00' 00"
Sunlit
Object was in full shadow at epoch
Visualization orbit readout
Latitude
81.52473°
Longitude
153.37085°
Altitude
491.446 km
Speed
7.628 km/s
Apparent Right ascension
20h 25m 07s
Apparent Declination
34° 29' 47"
Sunlit
Object is in daylight
Visualization observer readout
Local Sidereal Time
08:41:23
Azimuth
3.478° NNE
Elevation
-15.493°
Doppler factor
1
Orbital elements
Apogee altitude
481.695 km
Perigee altitude
474.814 km
Semi-major axis
6,856.392 km
Eccentricity
0.0005
Inclination
97.4105°
RAAN
265.3919°
Arg. of periapsis
80.2878°
True anomaly
Unknown
Mean anomaly
279.8928°
Eccentric anomaly
Unknown
Mean motion
3.82296 °/min
Orbital period
94.17 mins
BSTAR
0.0002986
Loading maneuver chart data...
Loading SW <> Apogee altitude chart data...
Loading historical data...
Loading historical data...
Loading historical data...
Loading historical data...
Loading historical data...
Loading historical data...
Loading historical data...

FLOCK 4BE 10 Visibility forecast

Observer location: undefined°, undefined°

Span
Click to sort rows by Start time (UTC) header in descending order
Start Az.
Max El. time (UTC)
Max El. Az.
Max El.
End time (UTC)
End Az.
4 mins2025-07-07 05:51:32.820Z223.216° SW2025-07-07 05:52:32.820Z250.695° W26.046°2025-07-07 05:55:32.820Z321.494° NNW
4 mins2025-07-07 18:51:32.820Z322.439° NNW2025-07-07 18:52:32.820Z299.246° NW21.02°2025-07-07 18:55:32.820Z238.018° WSW
|